owner,sensor,date,latitude,longitude,sea_surface_height_above_sea_level,qcFlag 
TCOON,ioos:station:TCOON:057:1,2014-03-01T00:06:00Z,28.4460,-96.3961,3.644,1111122 
TCOON,ioos:station:TCOON:057:1,2014-03-01T00:42:00Z,28.4460,-96.3961,3.651,1111122 
TCOON,ioos:station:TCOON:057:1,2014-03-01T01:06:00Z,28.4460,-96.3961,3.647,1111122 
TCOON,ioos:station:TCOON:057:1,2014-03-01T01:42:00Z,28.4460,-96.3961,3.655,1111122 
TCOON,ioos:station:TCOON:057:1,2014-03-01T02:06:00Z,28.4460,-96.3961,3.661,1111122 
TCOON,ioos:station:TCOON:057:1,2014-03-01T02:42:00Z,28.4460,-96.3961,3.663,1111122 
TCOON,ioos:station:TCOON:057:1,2014-03-01T03:42:00Z,28.4460,-96.3961,3.639,1111122 
TCOON,ioos:station:TCOON:057:1,2014-03-01T04:06:00Z,28.4460,-96.3961,3.634,1111122 
TCOON,ioos:station:TCOON:057:1,2014-03-01T04:42:00Z,28.4460,-96.3961,3.629,1111122 
TCOON,ioos:station:TCOON:057:1,2014-03-01T05:06:00Z,28.4460,-96.3961,3.624,1111122 
TCOON,ioos:station:TCOON:057:1,2014-03-01T05:42:00Z,28.4460,-96.3961,3.63,1111122 
TCOON,ioos:station:TCOON:057:1,2014-03-01T06:00:00Z,28.4460,-96.3961,3.64,1111122 
TCOON,ioos:station:TCOON:057:1,2014-03-01T06:42:00Z,28.4460,-96.3961,3.671,1111122 
TCOON,ioos:station:TCOON:057:1,2014-03-01T07:06:00Z,28.4460,-96.3961,3.676,1111122 
TCOON,ioos:station:TCOON:057:1,2014-03-01T07:42:00Z,28.4460,-96.3961,3.683,1111122 
TCOON,ioos:station:TCOON:057:1,2014-03-01T08:06:00Z,28.4460,-96.3961,3.695,1111122 
TCOON,ioos:station:TCOON:057:1,2014-03-01T08:42:00Z,28.4460,-96.3961,3.704,1111122 
TCOON,ioos:station:TCOON:057:1,2014-03-01T09:06:00Z,28.4460,-96.3961,3.701,1111122 
TCOON,ioos:station:TCOON:057:1,2014-03-01T09:42:00Z,28.4460,-96.3961,3.69,1111122 
TCOON,ioos:station:TCOON:057:1,2014-03-01T10:06:00Z,28.4460,-96.3961,3.672,1111122 
TCOON,ioos:station:TCOON:057:1,2014-03-01T10:42:00Z,28.4460,-96.3961,3.666,1111122 
TCOON,ioos:station:TCOON:057:1,2014-03-01T11:06:00Z,28.4460,-96.3961,3.661,1111122 
TCOON,ioos:station:TCOON:057:1,2014-03-01T12:06:00Z,28.4460,-96.3961,3.634,1111122 
TCOON,ioos:station:TCOON:057:1,2014-03-01T12:42:00Z,28.4460,-96.3961,3.617,1111122 
TCOON,ioos:station:TCOON:057:1,2014-03-01T13:06:00Z,28.4460,-96.3961,3.612,1111122 
TCOON,ioos:station:TCOON:057:1,2014-03-01T13:42:00Z,28.4460,-96.3961,3.592,1111122 
TCOON,ioos:station:TCOON:057:1,2014-03-01T14:06:00Z,28.4460,-96.3961,3.579,1111122 
TCOON,ioos:station:TCOON:057:1,2014-03-01T14:42:00Z,28.4460,-96.3961,3.554,1111122 
TCOON,ioos:station:TCOON:057:1,2014-03-01T15:06:00Z,28.4460,-96.3961,3.537,1111122 
TCOON,ioos:station:TCOON:057:1,2014-03-01T15:42:00Z,28.4460,-96.3961,3.508,1111122 
TCOON,ioos:station:TCOON:057:1,2014-03-01T16:06:00Z,28.4460,-96.3961,3.498,1111122 
TCOON,ioos:station:TCOON:057:1,2014-03-01T16:42:00Z,28.4460,-96.3961,3.485,1111122 
TCOON,ioos:station:TCOON:057:1,2014-03-01T17:06:00Z,28.4460,-96.3961,3.477,1111122 
TCOON,ioos:station:TCOON:057:1,2014-03-01T17:42:00Z,28.4460,-96.3961,3.474,1111122 
TCOON,ioos:station:TCOON:057:1,2014-03-01T18:06:00Z,28.4460,-96.3961,3.477,1111122 
TCOON,ioos:station:TCOON:057:1,2014-03-01T18:42:00Z,28.4460,-96.3961,3.468,1111122 
TCOON,ioos:station:TCOON:057:1,2014-03-01T19:06:00Z,28.4460,-96.3961,3.476,1111122 
TCOON,ioos:station:TCOON:057:1,2014-03-01T19:42:00Z,28.4460,-96.3961,3.49,1111122 
TCOON,ioos:station:TCOON:057:1,2014-03-01T20:06:00Z,28.4460,-96.3961,3.494,1111122 
TCOON,ioos:station:TCOON:057:1,2014-03-01T20:42:00Z,28.4460,-96.3961,3.506,1111122 
TCOON,ioos:station:TCOON:057:1,2014-03-01T21:06:00Z,28.4460,-96.3961,3.512,1111122 
TCOON,ioos:station:TCOON:057:1,2014-03-01T21:48:00Z,28.4460,-96.3961,3.535,1111122 
TCOON,ioos:station:TCOON:057:1,2014-03-01T22:06:00Z,28.4460,-96.3961,3.521,1111122 
TCOON,ioos:station:TCOON:057:1,2014-03-01T22:48:00Z,28.4460,-96.3961,3.541,1111122 
TCOON,ioos:station:TCOON:057:1,2014-03-01T23:06:00Z,28.4460,-96.3961,3.565,1111122 
TCOON,ioos:station:TCOON:057:1,2014-03-01T23:42:00Z,28.4460,-96.3961,3.554,1111122 
TCOON,ioos:station:TCOON:057:1,2014-03-02T00:06:00Z,28.4460,-96.3961,3.562,1111122 
TCOON,ioos:station:TCOON:057:1,2014-03-02T00:42:00Z,28.4460,-96.3961,3.574,1111122 
TCOON,ioos:station:TCOON:057:1,2014-03-02T01:06:00Z,28.4460,-96.3961,3.58,1111122 
TCOON,ioos:station:TCOON:057:1,2014-03-02T01:48:00Z,28.4460,-96.3961,3.581,1111122 
TCOON,ioos:station:TCOON:057:1,2014-03-02T02:06:00Z,28.4460,-96.3961,3.578,1111122 
TCOON,ioos:station:TCOON:057:1,2014-03-02T02:42:00Z,28.4460,-96.3961,3.571,1111122 
TCOON,ioos:station:TCOON:057:1,2014-03-02T03:06:00Z,28.4460,-96.3961,3.567,1111122 
TCOON,ioos:station:TCOON:057:1,2014-03-02T03:42:00Z,28.4460,-96.3961,3.561,1111122 
TCOON,ioos:station:TCOON:057:1,2014-03-02T04:06:00Z,28.4460,-96.3961,3.553,1111122 
TCOON,ioos:station:TCOON:057:1,2014-03-02T04:42:00Z,28.4460,-96.3961,3.563,1111122 
TCOON,ioos:station:TCOON:057:1,2014-03-02T05:06:00Z,28.4460,-96.3961,3.563,1111122 
TCOON,ioos:station:TCOON:057:1,2014-03-02T05:48:00Z,28.4460,-96.3961,3.555,1111122 
TCOON,ioos:station:TCOON:057:1,2014-03-02T06:00:00Z,28.4460,-96.3961,3.559,1111122 
TCOON,ioos:station:TCOON:057:1,2014-03-02T06:42:00Z,28.4460,-96.3961,3.575,1111122 
TCOON,ioos:station:TCOON:057:1,2014-03-02T07:00:00Z,28.4460,-96.3961,3.572,1111122 
TCOON,ioos:station:TCOON:057:1,2014-03-02T07:42:00Z,28.4460,-96.3961,3.582,1111122 
TCOON,ioos:station:TCOON:057:1,2014-03-02T08:06:00Z,28.4460,-96.3961,3.592,1111122 
TCOON,ioos:station:TCOON:057:1,2014-03-02T08:42:00Z,28.4460,-96.3961,3.599,1111122 
TCOON,ioos:station:TCOON:057:1,2014-03-02T09:06:00Z,28.4460,-96.3961,3.608,1111122 
TCOON,ioos:station:TCOON:057:1,2014-03-02T09:42:00Z,28.4460,-96.3961,3.63,1111122 
TCOON,ioos:station:TCOON:057:1,2014-03-02T10:06:00Z,28.4460,-96.3961,3.631,1111122 
TCOON,ioos:station:TCOON:057:1,2014-03-02T10:42:00Z,28.4460,-96.3961,3.633,1111122 
TCOON,ioos:station:TCOON:057:1,2014-03-02T11:06:00Z,28.4460,-96.3961,3.649,1111122 
TCOON,ioos:station:TCOON:057:1,2014-03-02T11:42:00Z,28.4460,-96.3961,3.644,1111122 
TCOON,ioos:station:TCOON:057:1,2014-03-02T12:06:00Z,28.4460,-96.3961,3.646,1111122 
TCOON,ioos:station:TCOON:057:1,2014-03-02T12:42:00Z,28.4460,-96.3961,3.64,1111122 
TCOON,ioos:station:TCOON:057:1,2014-03-02T13:06:00Z,28.4460,-96.3961,3.635,1111122 
TCOON,ioos:station:TCOON:057:1,2014-03-02T13:42:00Z,28.4460,-96.3961,3.619,1111122 
TCOON,ioos:station:TCOON:057:1,2014-03-02T14:06:00Z,28.4460,-96.3961,3.613,1111122 
TCOON,ioos:station:TCOON:057:1,2014-03-02T14:42:00Z,28.4460,-96.3961,3.592,1111122 
TCOON,ioos:station:TCOON:057:1,2014-03-02T15:06:00Z,28.4460,-96.3961,3.585,1111122 
TCOON,ioos:station:TCOON:057:1,2014-03-02T15:42:00Z,28.4460,-96.3961,3.574,1111122 
TCOON,ioos:station:TCOON:057:1,2014-03-02T16:06:00Z,28.4460,-96.3961,3.568,1111122 
TCOON,ioos:station:TCOON:057:1,2014-03-02T16:42:00Z,28.4460,-96.3961,3.558,1111122 
TCOON,ioos:station:TCOON:057:1,2014-03-02T17:06:00Z,28.4460,-96.3961,3.538,1111122 
TCOON,ioos:station:TCOON:057:1,2014-03-02T17:42:00Z,28.4460,-96.3961,3.533,1111122 
TCOON,ioos:station:TCOON:057:1,2014-03-02T18:06:00Z,28.4460,-96.3961,3.527,1111122 
TCOON,ioos:station:TCOON:057:1,2014-03-02T18:42:00Z,28.4460,-96.3961,3.503,1111122 
TCOON,ioos:station:TCOON:057:1,2014-03-02T19:06:00Z,28.4460,-96.3961,3.521,1111122 
TCOON,ioos:station:TCOON:057:1,2014-03-02T19:42:00Z,28.4460,-96.3961,3.528,1111122 
TCOON,ioos:station:TCOON:057:1,2014-03-02T20:06:00Z,28.4460,-96.3961,3.533,1111122 
TCOON,ioos:station:TCOON:057:1,2014-03-02T20:42:00Z,28.4460,-96.3961,3.547,1111122 
TCOON,ioos:station:TCOON:057:1,2014-03-02T21:06:00Z,28.4460,-96.3961,3.563,1111122 
TCOON,ioos:station:TCOON:057:1,2014-03-02T21:42:00Z,28.4460,-96.3961,3.556,1111122 
TCOON,ioos:station:TCOON:057:1,2014-03-02T22:06:00Z,28.4460,-96.3961,3.552,1111122 
TCOON,ioos:station:TCOON:057:1,2014-03-02T22:42:00Z,28.4460,-96.3961,3.562,1111122 
TCOON,ioos:station:TCOON:057:1,2014-03-02T23:06:00Z,28.4460,-96.3961,3.585,1111122 
TCOON,ioos:station:TCOON:057:1,2014-03-02T23:48:00Z,28.4460,-96.3961,3.59,1111122 
TCOON,ioos:station:TCOON:057:1,2014-03-03T00:06:00Z,28.4460,-96.3961,3.587,1111122 
TCOON,ioos:station:TCOON:057:1,2014-03-03T00:42:00Z,28.4460,-96.3961,3.717,1111122 
TCOON,ioos:station:TCOON:057:1,2014-03-03T01:06:00Z,28.4460,-96.3961,3.784,1111122 
TCOON,ioos:station:TCOON:057:1,2014-03-03T01:42:00Z,28.4460,-96.3961,3.715,1111122 
TCOON,ioos:station:TCOON:057:1,2014-03-03T02:06:00Z,28.4460,-96.3961,3.66,1111122 
TCOON,ioos:station:TCOON:057:1,2014-03-03T02:42:00Z,28.4460,-96.3961,3.684,1111122 
TCOON,ioos:station:TCOON:057:1,2014-03-03T03:06:00Z,28.4460,-96.3961,3.639,1111122 
TCOON,ioos:station:TCOON:057:1,2014-03-03T03:42:00Z,28.4460,-96.3961,3.574,1111122 
TCOON,ioos:station:TCOON:057:1,2014-03-03T04:06:00Z,28.4460,-96.3961,3.555,1111122 
TCOON,ioos:station:TCOON:057:1,2014-03-03T04:42:00Z,28.4460,-96.3961,3.563,1111122 
TCOON,ioos:station:TCOON:057:1,2014-03-03T05:06:00Z,28.4460,-96.3961,3.56,1111122 
TCOON,ioos:station:TCOON:057:1,2014-03-03T06:06:00Z,28.4460,-96.3961,3.512,1111122 
TCOON,ioos:station:TCOON:057:1,2014-03-03T06:42:00Z,28.4460,-96.3961,3.506,1111122 
TCOON,ioos:station:TCOON:057:1,2014-03-03T07:06:00Z,28.4460,-96.3961,3.501,1111122 
TCOON,ioos:station:TCOON:057:1,2014-03-03T07:42:00Z,28.4460,-96.3961,3.489,1111122 
TCOON,ioos:station:TCOON:057:1,2014-03-03T08:00:00Z,28.4460,-96.3961,3.482,1111122 
TCOON,ioos:station:TCOON:057:1,2014-03-03T08:42:00Z,28.4460,-96.3961,3.509,1111122 
TCOON,ioos:station:TCOON:057:1,2014-03-03T09:06:00Z,28.4460,-96.3961,3.523,1111122 
TCOON,ioos:station:TCOON:057:1,2014-03-03T09:42:00Z,28.4460,-96.3961,3.512,1111122 
TCOON,ioos:station:TCOON:057:1,2014-03-03T10:06:00Z,28.4460,-96.3961,3.513,1111122 
TCOON,ioos:station:TCOON:057:1,2014-03-03T10:42:00Z,28.4460,-96.3961,3.522,1111122 
TCOON,ioos:station:TCOON:057:1,2014-03-03T11:06:00Z,28.4460,-96.3961,3.516,1111122 
TCOON,ioos:station:TCOON:057:1,2014-03-03T11:42:00Z,28.4460,-96.3961,3.513,1111122 
TCOON,ioos:station:TCOON:057:1,2014-03-03T12:06:00Z,28.4460,-96.3961,3.517,1111122 
TCOON,ioos:station:TCOON:057:1,2014-03-03T12:42:00Z,28.4460,-96.3961,3.513,1111122 
TCOON,ioos:station:TCOON:057:1,2014-03-03T13:06:00Z,28.4460,-96.3961,3.51,1111122 
TCOON,ioos:station:TCOON:057:1,2014-03-03T13:42:00Z,28.4460,-96.3961,3.493,1111122 
TCOON,ioos:station:TCOON:057:1,2014-03-03T14:06:00Z,28.4460,-96.3961,3.457,1111122 
TCOON,ioos:station:TCOON:057:1,2014-03-03T14:42:00Z,28.4460,-96.3961,3.468,1111122 
TCOON,ioos:station:TCOON:057:1,2014-03-03T15:06:00Z,28.4460,-96.3961,3.449,1111122 
TCOON,ioos:station:TCOON:057:1,2014-03-03T15:42:00Z,28.4460,-96.3961,3.422,1111122 
TCOON,ioos:station:TCOON:057:1,2014-03-03T16:06:00Z,28.4460,-96.3961,3.394,1111122 
TCOON,ioos:station:TCOON:057:1,2014-03-03T16:42:00Z,28.4460,-96.3961,3.362,1111122 
TCOON,ioos:station:TCOON:057:1,2014-03-03T17:06:00Z,28.4460,-96.3961,3.341,1111122 
TCOON,ioos:station:TCOON:057:1,2014-03-03T17:42:00Z,28.4460,-96.3961,3.354,1111122 
TCOON,ioos:station:TCOON:057:1,2014-03-03T18:06:00Z,28.4460,-96.3961,3.326,1111122 
TCOON,ioos:station:TCOON:057:1,2014-03-03T18:42:00Z,28.4460,-96.3961,3.32,1111122 
TCOON,ioos:station:TCOON:057:1,2014-03-03T19:06:00Z,28.4460,-96.3961,3.333,1111122 
TCOON,ioos:station:TCOON:057:1,2014-03-03T19:42:00Z,28.4460,-96.3961,3.357,1111122 
TCOON,ioos:station:TCOON:057:1,2014-03-03T20:06:00Z,28.4460,-96.3961,3.366,1111122 
TCOON,ioos:station:TCOON:057:1,2014-03-03T20:42:00Z,28.4460,-96.3961,3.375,1111122 
TCOON,ioos:station:TCOON:057:1,2014-03-03T21:06:00Z,28.4460,-96.3961,3.361,1111122 
TCOON,ioos:station:TCOON:057:1,2014-03-03T21:42:00Z,28.4460,-96.3961,3.346,1111122 
TCOON,ioos:station:TCOON:057:1,2014-03-03T22:06:00Z,28.4460,-96.3961,3.383,1111122 
TCOON,ioos:station:TCOON:057:1,2014-03-03T22:42:00Z,28.4460,-96.3961,3.422,1111122 
TCOON,ioos:station:TCOON:057:1,2014-03-03T23:06:00Z,28.4460,-96.3961,3.401,1111122 
TCOON,ioos:station:TCOON:057:1,2014-03-03T23:42:00Z,28.4460,-96.3961,3.382,1111122 
TCOON,ioos:station:TCOON:057:1,2014-03-04T00:06:00Z,28.4460,-96.3961,3.399,1111122 
TCOON,ioos:station:TCOON:057:1,2014-03-04T00:42:00Z,28.4460,-96.3961,3.392,1111122 
TCOON,ioos:station:TCOON:057:1,2014-03-04T01:06:00Z,28.4460,-96.3961,3.405,1111122 
TCOON,ioos:station:TCOON:057:1,2014-03-04T01:42:00Z,28.4460,-96.3961,3.428,1111122 
TCOON,ioos:station:TCOON:057:1,2014-03-04T02:06:00Z,28.4460,-96.3961,3.406,1111122 
TCOON,ioos:station:TCOON:057:1,2014-03-04T02:42:00Z,28.4460,-96.3961,3.384,1111122 
TCOON,ioos:station:TCOON:057:1,2014-03-04T03:06:00Z,28.4460,-96.3961,3.407,1111122 
TCOON,ioos:station:TCOON:057:1,2014-03-04T03:42:00Z,28.4460,-96.3961,3.4,1111122 
TCOON,ioos:station:TCOON:057:1,2014-03-04T04:06:00Z,28.4460,-96.3961,3.384,1111122 
TCOON,ioos:station:TCOON:057:1,2014-03-04T04:48:00Z,28.4460,-96.3961,3.361,1111122 
TCOON,ioos:station:TCOON:057:1,2014-03-04T05:06:00Z,28.4460,-96.3961,3.369,1111122 
TCOON,ioos:station:TCOON:057:1,2014-03-04T05:42:00Z,28.4460,-96.3961,3.354,1111122 
TCOON,ioos:station:TCOON:057:1,2014-03-04T06:00:00Z,28.4460,-96.3961,3.343,1111122 
TCOON,ioos:station:TCOON:057:1,2014-03-04T06:42:00Z,28.4460,-96.3961,3.335,1111122 
TCOON,ioos:station:TCOON:057:1,2014-03-04T07:06:00Z,28.4460,-96.3961,3.33,1111122 
TCOON,ioos:station:TCOON:057:1,2014-03-04T07:42:00Z,28.4460,-96.3961,3.329,1111122 
TCOON,ioos:station:TCOON:057:1,2014-03-04T08:06:00Z,28.4460,-96.3961,3.32,1111122 
TCOON,ioos:station:TCOON:057:1,2014-03-04T08:42:00Z,28.4460,-96.3961,3.319,1111122 
TCOON,ioos:station:TCOON:057:1,2014-03-04T09:06:00Z,28.4460,-96.3961,3.353,1111122 
TCOON,ioos:station:TCOON:057:1,2014-03-04T09:42:00Z,28.4460,-96.3961,3.394,1111122 
TCOON,ioos:station:TCOON:057:1,2014-03-04T10:06:00Z,28.4460,-96.3961,3.395,1111122 
TCOON,ioos:station:TCOON:057:1,2014-03-04T10:42:00Z,28.4460,-96.3961,3.38,1111122 
TCOON,ioos:station:TCOON:057:1,2014-03-04T11:06:00Z,28.4460,-96.3961,3.432,1111122 
TCOON,ioos:station:TCOON:057:1,2014-03-04T11:36:00Z,28.4460,-96.3961,3.477,1111122 
TCOON,ioos:station:TCOON:057:1,2014-03-04T12:06:00Z,28.4460,-96.3961,3.473,1111122 
TCOON,ioos:station:TCOON:057:1,2014-03-04T12:42:00Z,28.4460,-96.3961,3.521,1111122 
TCOON,ioos:station:TCOON:057:1,2014-03-04T13:06:00Z,28.4460,-96.3961,3.541,1111122 
TCOON,ioos:station:TCOON:057:1,2014-03-04T13:48:00Z,28.4460,-96.3961,3.55,1111122 
TCOON,ioos:station:TCOON:057:1,2014-03-04T14:00:00Z,28.4460,-96.3961,3.568,1111122 
TCOON,ioos:station:TCOON:057:1,2014-03-04T14:42:00Z,28.4460,-96.3961,3.548,1111122 
TCOON,ioos:station:TCOON:057:1,2014-03-04T15:06:00Z,28.4460,-96.3961,3.521,1111122 
TCOON,ioos:station:TCOON:057:1,2014-03-04T15:42:00Z,28.4460,-96.3961,3.502,1111122 
TCOON,ioos:station:TCOON:057:1,2014-03-04T16:06:00Z,28.4460,-96.3961,3.499,1111122 
TCOON,ioos:station:TCOON:057:1,2014-03-04T16:42:00Z,28.4460,-96.3961,3.527,1111122 
TCOON,ioos:station:TCOON:057:1,2014-03-04T17:06:00Z,28.4460,-96.3961,3.568,1111122 
TCOON,ioos:station:TCOON:057:1,2014-03-04T17:42:00Z,28.4460,-96.3961,3.555,1111122 
TCOON,ioos:station:TCOON:057:1,2014-03-04T18:06:00Z,28.4460,-96.3961,3.564,1111122 
TCOON,ioos:station:TCOON:057:1,2014-03-04T18:48:00Z,28.4460,-96.3961,3.571,1111122 
TCOON,ioos:station:TCOON:057:1,2014-03-04T19:06:00Z,28.4460,-96.3961,3.564,1111122 
TCOON,ioos:station:TCOON:057:1,2014-03-04T19:42:00Z,28.4460,-96.3961,3.546,1111122 
TCOON,ioos:station:TCOON:057:1,2014-03-04T20:06:00Z,28.4460,-96.3961,3.553,1111122 
TCOON,ioos:station:TCOON:057:1,2014-03-04T20:48:00Z,28.4460,-96.3961,3.54,1111122 
TCOON,ioos:station:TCOON:057:1,2014-03-04T21:06:00Z,28.4460,-96.3961,3.553,1111122 
TCOON,ioos:station:TCOON:057:1,2014-03-04T21:48:00Z,28.4460,-96.3961,3.586,1111122 
TCOON,ioos:station:TCOON:057:1,2014-03-04T22:06:00Z,28.4460,-96.3961,3.573,1111122 
TCOON,ioos:station:TCOON:057:1,2014-03-04T22:48:00Z,28.4460,-96.3961,3.567,1111122 
TCOON,ioos:station:TCOON:057:1,2014-03-04T23:06:00Z,28.4460,-96.3961,3.585,1111122 
TCOON,ioos:station:TCOON:057:1,2014-03-04T23:48:00Z,28.4460,-96.3961,3.604,1111122 
TCOON,ioos:station:TCOON:057:1,2014-03-05T00:00:00Z,28.4460,-96.3961,3.597,1111122 
TCOON,ioos:station:TCOON:057:1,2014-03-05T00:42:00Z,28.4460,-96.3961,3.593,1111122 
TCOON,ioos:station:TCOON:057:1,2014-03-06T15:06:00Z,28.4460,-96.3961,3.596,1111122 
TCOON,ioos:station:TCOON:057:1,2014-03-06T15:42:00Z,28.4460,-96.3961,3.608,1111122 
TCOON,ioos:station:TCOON:057:1,2014-03-06T16:42:00Z,28.4460,-96.3961,3.594,1111122 
TCOON,ioos:station:TCOON:057:1,2014-03-06T17:00:00Z,28.4460,-96.3961,3.613,1111122 
TCOON,ioos:station:TCOON:057:1,2014-03-06T17:42:00Z,28.4460,-96.3961,3.624,1111122 
TCOON,ioos:station:TCOON:057:1,2014-03-06T18:00:00Z,28.4460,-96.3961,3.614,1111122 
TCOON,ioos:station:TCOON:057:1,2014-03-06T18:42:00Z,28.4460,-96.3961,3.602,1111122 
TCOON,ioos:station:TCOON:057:1,2014-03-06T19:00:00Z,28.4460,-96.3961,3.613,1111122 
TCOON,ioos:station:TCOON:057:1,2014-03-06T19:42:00Z,28.4460,-96.3961,3.613,1111122 
TCOON,ioos:station:TCOON:057:1,2014-03-06T20:00:00Z,28.4460,-96.3961,3.594,1111122 
TCOON,ioos:station:TCOON:057:1,2014-03-06T20:42:00Z,28.4460,-96.3961,3.612,1111122 
TCOON,ioos:station:TCOON:057:1,2014-03-06T21:00:00Z,28.4460,-96.3961,3.611,1111122 
TCOON,ioos:station:TCOON:057:1,2014-03-06T21:42:00Z,28.4460,-96.3961,3.606,1111122 
TCOON,ioos:station:TCOON:057:1,2014-03-06T22:00:00Z,28.4460,-96.3961,3.605,1111122 
TCOON,ioos:station:TCOON:057:1,2014-03-06T22:42:00Z,28.4460,-96.3961,3.602,1111122 
TCOON,ioos:station:TCOON:057:1,2014-03-06T23:00:00Z,28.4460,-96.3961,3.604,1111122 
TCOON,ioos:station:TCOON:057:1,2014-03-06T23:42:00Z,28.4460,-96.3961,3.608,1111122 
TCOON,ioos:station:TCOON:057:1,2014-03-07T00:00:00Z,28.4460,-96.3961,3.607,1111122 
TCOON,ioos:station:TCOON:057:1,2014-03-07T00:42:00Z,28.4460,-96.3961,3.6,1111122 
TCOON,ioos:station:TCOON:057:1,2014-03-07T01:00:00Z,28.4460,-96.3961,3.585,1111122 
TCOON,ioos:station:TCOON:057:1,2014-03-07T01:42:00Z,28.4460,-96.3961,3.563,1111122 
TCOON,ioos:station:TCOON:057:1,2014-03-07T02:00:00Z,28.4460,-96.3961,3.565,1111122 
TCOON,ioos:station:TCOON:057:1,2014-03-07T02:42:00Z,28.4460,-96.3961,3.538,1111122 
TCOON,ioos:station:TCOON:057:1,2014-03-07T03:00:00Z,28.4460,-96.3961,3.526,1111122 
TCOON,ioos:station:TCOON:057:1,2014-03-07T03:42:00Z,28.4460,-96.3961,3.503,1111122 
TCOON,ioos:station:TCOON:057:1,2014-03-07T04:00:00Z,28.4460,-96.3961,3.497,1111122 
TCOON,ioos:station:TCOON:057:1,2014-03-07T04:42:00Z,28.4460,-96.3961,3.465,1111122 
TCOON,ioos:station:TCOON:057:1,2014-03-07T05:00:00Z,28.4460,-96.3961,3.459,1111122 
TCOON,ioos:station:TCOON:057:1,2014-03-07T05:48:00Z,28.4460,-96.3961,3.432,1111122 
TCOON,ioos:station:TCOON:057:1,2014-03-07T05:54:00Z,28.4460,-96.3961,3.428,1111122 
TCOON,ioos:station:TCOON:057:1,2014-03-07T06:42:00Z,28.4460,-96.3961,3.41,1111122 
TCOON,ioos:station:TCOON:057:1,2014-03-07T07:00:00Z,28.4460,-96.3961,3.4,1111122 
TCOON,ioos:station:TCOON:057:1,2014-03-07T07:42:00Z,28.4460,-96.3961,3.38,1111122 
TCOON,ioos:station:TCOON:057:1,2014-03-07T08:00:00Z,28.4460,-96.3961,3.376,1111122 
TCOON,ioos:station:TCOON:057:1,2014-03-07T08:42:00Z,28.4460,-96.3961,3.364,1111122 
TCOON,ioos:station:TCOON:057:1,2014-03-07T09:00:00Z,28.4460,-96.3961,3.355,1111122 
TCOON,ioos:station:TCOON:057:1,2014-03-07T09:42:00Z,28.4460,-96.3961,3.343,1111122 
TCOON,ioos:station:TCOON:057:1,2014-03-07T10:00:00Z,28.4460,-96.3961,3.344,1111122 
TCOON,ioos:station:TCOON:057:1,2014-03-07T10:42:00Z,28.4460,-96.3961,3.351,1111122 
TCOON,ioos:station:TCOON:057:1,2014-03-07T11:00:00Z,28.4460,-96.3961,3.349,1111122 
TCOON,ioos:station:TCOON:057:1,2014-03-07T11:42:00Z,28.4460,-96.3961,3.359,1111122 
TCOON,ioos:station:TCOON:057:1,2014-03-07T12:00:00Z,28.4460,-96.3961,3.371,1111122 
TCOON,ioos:station:TCOON:057:1,2014-03-07T12:42:00Z,28.4460,-96.3961,3.385,1111122 
TCOON,ioos:station:TCOON:057:1,2014-03-07T13:00:00Z,28.4460,-96.3961,3.389,1111122 
TCOON,ioos:station:TCOON:057:1,2014-03-07T13:42:00Z,28.4460,-96.3961,3.42,1111122 
TCOON,ioos:station:TCOON:057:1,2014-03-07T14:00:00Z,28.4460,-96.3961,3.427,1111122 
TCOON,ioos:station:TCOON:057:1,2014-03-07T14:42:00Z,28.4460,-96.3961,3.45,1111122 
TCOON,ioos:station:TCOON:057:1,2014-03-07T15:00:00Z,28.4460,-96.3961,3.458,1111122 
TCOON,ioos:station:TCOON:057:1,2014-03-07T15:42:00Z,28.4460,-96.3961,3.466,1111122 
TCOON,ioos:station:TCOON:057:1,2014-03-07T16:06:00Z,28.4460,-96.3961,3.479,1111122 
TCOON,ioos:station:TCOON:057:1,2014-03-07T16:42:00Z,28.4460,-96.3961,3.507,1111122 
TCOON,ioos:station:TCOON:057:1,2014-03-07T17:06:00Z,28.4460,-96.3961,3.502,1111122 
TCOON,ioos:station:TCOON:057:1,2014-03-07T17:42:00Z,28.4460,-96.3961,3.512,1111122 
TCOON,ioos:station:TCOON:057:1,2014-03-07T18:00:00Z,28.4460,-96.3961,3.517,1111122 
TCOON,ioos:station:TCOON:057:1,2014-03-07T18:42:00Z,28.4460,-96.3961,3.527,1111122 
TCOON,ioos:station:TCOON:057:1,2014-03-07T19:06:00Z,28.4460,-96.3961,3.544,1111122 
TCOON,ioos:station:TCOON:057:1,2014-03-07T19:42:00Z,28.4460,-96.3961,3.55,1111122 
TCOON,ioos:station:TCOON:057:1,2014-03-07T20:06:00Z,28.4460,-96.3961,3.565,1111122 
TCOON,ioos:station:TCOON:057:1,2014-03-07T20:42:00Z,28.4460,-96.3961,3.58,1111122 
TCOON,ioos:station:TCOON:057:1,2014-03-07T21:06:00Z,28.4460,-96.3961,3.583,1111122 
TCOON,ioos:station:TCOON:057:1,2014-03-07T21:42:00Z,28.4460,-96.3961,3.587,1111122 
TCOON,ioos:station:TCOON:057:1,2014-03-07T22:06:00Z,28.4460,-96.3961,3.595,1111122 
TCOON,ioos:station:TCOON:057:1,2014-03-07T22:42:00Z,28.4460,-96.3961,3.603,1111122 
TCOON,ioos:station:TCOON:057:1,2014-03-07T23:06:00Z,28.4460,-96.3961,3.598,1111122 
TCOON,ioos:station:TCOON:057:1,2014-03-07T23:42:00Z,28.4460,-96.3961,3.606,1111122 
TCOON,ioos:station:TCOON:057:1,2014-03-08T00:06:00Z,28.4460,-96.3961,3.605,1111122 
TCOON,ioos:station:TCOON:057:1,2014-03-08T00:42:00Z,28.4460,-96.3961,3.609,1111122 
TCOON,ioos:station:TCOON:057:1,2014-03-08T01:00:00Z,28.4460,-96.3961,3.607,1111122 
TCOON,ioos:station:TCOON:057:1,2014-03-08T01:42:00Z,28.4460,-96.3961,3.6,1111122 
TCOON,ioos:station:TCOON:057:1,2014-03-08T02:06:00Z,28.4460,-96.3961,3.596,1111122 
TCOON,ioos:station:TCOON:057:1,2014-03-08T02:42:00Z,28.4460,-96.3961,3.59,1111122 
TCOON,ioos:station:TCOON:057:1,2014-03-08T03:06:00Z,28.4460,-96.3961,3.584,1111122 
TCOON,ioos:station:TCOON:057:1,2014-03-08T03:42:00Z,28.4460,-96.3961,3.579,1111122 
TCOON,ioos:station:TCOON:057:1,2014-03-08T04:00:00Z,28.4460,-96.3961,3.574,1111122 
TCOON,ioos:station:TCOON:057:1,2014-03-08T04:42:00Z,28.4460,-96.3961,3.548,1111122 
TCOON,ioos:station:TCOON:057:1,2014-03-08T05:00:00Z,28.4460,-96.3961,3.541,1111122 
TCOON,ioos:station:TCOON:057:1,2014-03-08T05:42:00Z,28.4460,-96.3961,3.518,1111122 
TCOON,ioos:station:TCOON:057:1,2014-03-08T06:06:00Z,28.4460,-96.3961,3.509,1111122 
TCOON,ioos:station:TCOON:057:1,2014-03-08T06:42:00Z,28.4460,-96.3961,3.494,1111122 
TCOON,ioos:station:TCOON:057:1,2014-03-08T07:06:00Z,28.4460,-96.3961,3.484,1111122 
TCOON,ioos:station:TCOON:057:1,2014-03-08T07:42:00Z,28.4460,-96.3961,3.475,1111122 
TCOON,ioos:station:TCOON:057:1,2014-03-08T08:06:00Z,28.4460,-96.3961,3.455,1111122 
TCOON,ioos:station:TCOON:057:1,2014-03-08T08:42:00Z,28.4460,-96.3961,3.435,1111122 
TCOON,ioos:station:TCOON:057:1,2014-03-08T09:06:00Z,28.4460,-96.3961,3.436,1111122 
TCOON,ioos:station:TCOON:057:1,2014-03-08T09:42:00Z,28.4460,-96.3961,3.429,1111122 
TCOON,ioos:station:TCOON:057:1,2014-03-08T10:00:00Z,28.4460,-96.3961,3.423,1111122 
TCOON,ioos:station:TCOON:057:1,2014-03-08T10:42:00Z,28.4460,-96.3961,3.414,1111122 
TCOON,ioos:station:TCOON:057:1,2014-03-08T11:06:00Z,28.4460,-96.3961,3.418,1111122 
TCOON,ioos:station:TCOON:057:1,2014-03-08T11:42:00Z,28.4460,-96.3961,3.418,1111122 
TCOON,ioos:station:TCOON:057:1,2014-03-08T12:06:00Z,28.4460,-96.3961,3.42,1111122 
TCOON,ioos:station:TCOON:057:1,2014-03-08T12:42:00Z,28.4460,-96.3961,3.439,1111122 
TCOON,ioos:station:TCOON:057:1,2014-03-08T13:06:00Z,28.4460,-96.3961,3.442,1111122 
TCOON,ioos:station:TCOON:057:1,2014-03-08T13:42:00Z,28.4460,-96.3961,3.455,1111122 
TCOON,ioos:station:TCOON:057:1,2014-03-08T14:00:00Z,28.4460,-96.3961,3.459,1111122 